timestamp,surface_pressure_avg,surface_temp_avg,battery_voltage,lat,long
2021-06-27 00:09:01+00:00,354.7446,14.49,12.97,47.84626,-54.09684
2021-06-27 00:19:01+00:00,359.6813,14.48,12.73,47.84626,-54.09684
2021-06-27 00:29:01+00:00,362.5129,14.41,12.73,47.84626,-54.09684
2021-06-27 00:39:01+00:00,366.1296,14.4,12.73,47.84626,-54.09684
2021-06-27 00:49:01+00:00,369.1729,14.3,12.73,47.84626,-54.09684
2021-06-27 00:59:01+00:00,369.4147,14.3,12.73,47.84626,-54.09684
2021-06-27 01:09:01+00:00,368.9595,14.3,12.73,47.84626,-54.09684
2021-06-27 01:19:01+00:00,369.4213,14.3,12.73,47.84626,-54.09684
2021-06-27 01:29:01+00:00,368.6512,14.3,12.73,47.84626,-54.09684
2021-06-27 01:39:01+00:00,364.8297,14.3,12.73,47.84626,-54.09684
2021-06-27 01:49:01+00:00,365.0963,14.28,12.73,47.84626,-54.09684
2021-06-27 01:59:01+00:00,363.6946,14.2,12.73,47.84626,-54.09684
2021-06-27 02:09:01+00:00,359.6846,14.2,12.73,47.84626,-54.09684
2021-06-27 02:19:00+00:00,357.0378,14.23,12.73,47.84626,-54.09684
2021-06-27 02:29:00+00:00,355.5364,14.25,12.73,47.84626,-54.09684
2021-06-27 02:39:00+00:00,349.32800000000015,14.23,12.73,47.84626,-54.09684
2021-06-27 02:49:00+00:00,344.1362,14.2,12.73,47.84626,-54.09684
2021-06-27 02:59:00+00:00,342.6312,14.2,12.73,47.84626,-54.09684
2021-06-27 03:09:00+00:00,339.7196,14.2,12.73,47.84626,-54.09684
2021-06-27 03:19:01+00:00,331.1146,14.2,12.73,47.84626,-54.09684
2021-06-27 03:29:01+00:00,323.748,14.23,12.73,47.84626,-54.09684
2021-06-27 03:39:01+00:00,316.908,14.24,12.73,47.84626,-54.09684
2021-06-27 03:49:01+00:00,307.2346,14.25,12.73,47.84626,-54.09684
2021-06-27 03:59:01+00:00,295.1497,14.28,12.73,47.84626,-54.09684
2021-06-27 04:09:01+00:00,286.788,14.28,12.73,47.84626,-54.09684
2021-06-27 04:19:00+00:00,278.3531,14.28,12.65,47.84626,-54.09684
2021-06-27 04:29:00+00:00,264.8197,14.29,12.65,47.84626,-54.09684
2021-06-27 04:39:00+00:00,255.2814,14.3,12.65,47.84626,-54.09684
2021-06-27 04:49:00+00:00,246.4398,14.3,12.65,47.84626,-54.09684
2021-06-27 04:59:00+00:00,235.6814,14.3,12.65,47.84626,-54.09684
2021-06-27 05:09:00+00:00,222.9915,14.3,12.65,47.84626,-54.09684
2021-06-27 05:19:00+00:00,216.6514,14.3,12.65,47.84626,-54.09684
2021-06-27 05:29:00+00:00,211.0098,14.29,12.65,47.84626,-54.09684
2021-06-27 05:39:00+00:00,199.6431,14.29,12.65,47.84626,-54.09684
2021-06-27 05:49:00+00:00,191.2748,14.3,12.65,47.84626,-54.09684
2021-06-27 05:59:00+00:00,188.9148,14.29,12.65,47.84626,-54.09684
2021-06-27 06:09:00+00:00,183.7848,14.29,12.65,47.84626,-54.09684
2021-06-27 06:19:01+00:00,175.5231,14.29,12.65,47.84626,-54.09684
2021-06-27 06:29:01+00:00,171.1165,14.29,12.65,47.84626,-54.09684
2021-06-27 06:39:01+00:00,170.9465,14.29,12.65,47.84626,-54.09684
2021-06-27 06:49:01+00:00,168.0615,14.29,12.65,47.84626,-54.09684
2021-06-27 06:59:01+00:00,164.2432,14.3,12.65,47.84626,-54.09684
2021-06-27 07:09:01+00:00,165.1765,14.3,12.65,47.84626,-54.09684
2021-06-27 07:19:01+00:00,167.8315,14.3,12.65,47.84626,-54.09684
2021-06-27 07:29:01+00:00,166.8765,14.3,12.65,47.84626,-54.09684
2021-06-27 07:39:01+00:00,165.0148,14.3,12.65,47.84626,-54.09684
2021-06-27 07:49:01+00:00,167.3415,14.3,12.65,47.84626,-54.09684
2021-06-27 07:59:01+00:00,171.6065,14.3,12.65,47.84626,-54.09684
2021-06-27 08:09:01+00:00,173.0748,14.3,12.65,47.84626,-54.09684
2021-06-27 08:19:00+00:00,175.9315,14.3,12.65,47.84626,-54.09684
2021-06-27 08:29:00+00:00,180.2298,14.28,12.65,47.84626,-54.09684
2021-06-27 08:39:00+00:00,179.9715,14.3,12.65,47.84626,-54.09684
2021-06-27 08:49:00+00:00,181.7015,14.3,12.65,47.84626,-54.09684
2021-06-27 08:59:00+00:00,185.9814,14.3,12.65,47.84626,-54.09684
2021-06-27 09:09:00+00:00,188.6765,14.3,12.65,47.84626,-54.09684
2021-06-27 09:19:01+00:00,191.1465,14.3,12.57,47.84626,-54.09684
2021-06-27 09:29:01+00:00,192.3115,14.33,12.57,47.84626,-54.09684
2021-06-27 09:39:01+00:00,195.1281,14.34,12.57,47.84626,-54.09684
2021-06-27 09:49:01+00:00,200.1731,14.32,12.57,47.84626,-54.09684
2021-06-27 09:59:01+00:00,204.5881,14.3,12.57,47.84626,-54.09684
2021-06-27 10:09:01+00:00,208.7397,14.3,12.57,47.84626,-54.09684
2021-06-27 10:19:01+00:00,212.2498,14.3,12.65,47.84626,-54.09684
2021-06-27 10:29:01+00:00,218.3315,14.3,12.65,47.84626,-54.09684
2021-06-27 10:39:01+00:00,225.7214,14.3,12.65,47.84626,-54.09684
2021-06-27 10:49:01+00:00,231.7115,14.3,12.65,47.84626,-54.09684
2021-06-27 10:59:01+00:00,237.3814,14.3,12.65,47.84626,-54.09684
2021-06-27 11:09:01+00:00,245.5014,14.3,12.65,47.84626,-54.09684
2021-06-27 11:19:01+00:00,254.2948,14.3,12.73,47.84626,-54.09684
2021-06-27 11:29:01+00:00,263.748,14.3,12.73,47.84626,-54.09684
2021-06-27 11:39:01+00:00,271.3914,14.35,12.73,47.84626,-54.09684
2021-06-27 11:49:01+00:00,279.8381,14.38,12.73,47.84626,-54.09684
2021-06-27 11:59:01+00:00,287.7647,14.39,12.73,47.84626,-54.09684
2021-06-27 12:09:01+00:00,296.5847,14.39,12.73,47.84626,-54.09684
2021-06-27 12:19:00+00:00,301.1497,14.39,12.97,47.84626,-54.09684
2021-06-27 12:29:00+00:00,306.033,14.39,12.97,47.84626,-54.09684
2021-06-27 12:39:00+00:00,310.843,14.39,12.97,47.84626,-54.09684
2021-06-27 12:49:00+00:00,317.118,14.39,12.97,47.84626,-54.09684
2021-06-27 12:59:00+00:00,318.8164,14.39,12.97,47.84626,-54.09684
2021-06-27 13:09:00+00:00,322.703,14.4,12.97,47.84626,-54.09684
2021-06-27 13:19:01+00:00,326.3264,14.4,13.05,47.84626,-54.09684
2021-06-27 13:29:01+00:00,329.0997,14.4,13.05,47.84626,-54.09684
2021-06-27 13:39:01+00:00,331.6980000000001,14.4,13.05,47.84626,-54.09684
2021-06-27 13:49:01+00:00,334.9847,14.4,13.05,47.84626,-54.09684
2021-06-27 13:59:01+00:00,333.7496,14.4,13.05,47.84626,-54.09684
2021-06-27 14:09:01+00:00,330.7662,14.4,13.05,47.84626,-54.09684
2021-06-27 14:19:01+00:00,327.6147,14.4,13.05,47.84626,-54.09684
2021-06-27 14:29:01+00:00,326.9747,14.45,13.05,47.84626,-54.09684
2021-06-27 14:39:01+00:00,325.0779,14.46,13.05,47.84626,-54.09684
2021-06-27 14:49:01+00:00,322.223,14.4,13.05,47.84626,-54.09684
2021-06-27 14:59:01+00:00,318.5729,14.4,13.05,47.84626,-54.09684
2021-06-27 15:09:01+00:00,313.6847,14.4,13.05,47.84626,-54.09684
2021-06-27 15:19:01+00:00,311.248,14.4,13.21,47.84626,-54.09684
2021-06-27 15:29:01+00:00,308.463,14.4,13.21,47.84626,-54.09684
2021-06-27 15:39:01+00:00,303.743,14.4,13.21,47.84626,-54.09684
2021-06-27 15:49:01+00:00,294.9114,14.4,13.21,47.84626,-54.09684
2021-06-27 15:59:01+00:00,288.6114,14.4,13.21,47.84626,-54.09684
2021-06-27 16:09:01+00:00,282.503,14.4,13.21,47.84626,-54.09684
2021-06-27 16:19:01+00:00,274.2614,14.4,13.21,47.84626,-54.09684
2021-06-27 16:29:01+00:00,263.1764,14.4,13.21,47.84626,-54.09684
2021-06-27 16:39:01+00:00,256.2347,14.4,13.21,47.84626,-54.09684
2021-06-27 16:49:01+00:00,250.4248,14.4,13.21,47.84626,-54.09684
2021-06-27 16:59:01+00:00,239.3964,14.4,13.21,47.84626,-54.09684
2021-06-27 17:09:01+00:00,228.3615,14.4,13.21,47.84626,-54.09684
2021-06-27 17:19:01+00:00,221.0381,14.4,13.37,47.84626,-54.09684
2021-06-27 17:29:01+00:00,212.0031,14.4,13.37,47.84626,-54.09684
2021-06-27 17:39:01+00:00,202.0214,14.4,13.37,47.84626,-54.09684
2021-06-27 17:49:01+00:00,195.4998,14.4,13.37,47.84626,-54.09684
2021-06-27 17:59:01+00:00,188.4381,14.4,13.37,47.84626,-54.09684
2021-06-27 18:09:01+00:00,181.3232,14.4,13.37,47.84626,-54.09684
2021-06-27 18:19:01+00:00,175.4031,14.4,13.21,47.84626,-54.09684
2021-06-27 18:29:01+00:00,170.1798,14.39,13.21,47.84626,-54.09684
2021-06-27 18:39:01+00:00,165.2415,14.37,13.21,47.84626,-54.09684
2021-06-27 18:49:01+00:00,163.1298,14.38,13.21,47.84626,-54.09684
2021-06-27 18:59:01+00:00,162.2865,14.39,13.21,47.84626,-54.09684
2021-06-27 19:09:01+00:00,163.1765,14.4,13.21,47.84626,-54.09684
2021-06-27 19:19:01+00:00,167.4731,14.4,13.13,47.84626,-54.09684
2021-06-27 19:29:01+00:00,169.8065,14.4,13.13,47.84626,-54.09684
2021-06-27 19:39:01+00:00,170.1865,14.4,13.13,47.84626,-54.09684
2021-06-27 19:49:01+00:00,171.8798,14.4,13.13,47.84626,-54.09684
2021-06-27 19:59:01+00:00,175.4715,14.4,13.13,47.84626,-54.09684
2021-06-27 20:09:01+00:00,178.6465,14.4,13.13,47.84626,-54.09684
2021-06-27 20:19:01+00:00,181.8965,14.4,12.97,47.84626,-54.09684
2021-06-27 20:29:01+00:00,186.0581,14.4,12.97,47.84626,-54.09684
2021-06-27 20:39:01+00:00,189.9331,14.4,12.97,47.84626,-54.09684
2021-06-27 20:49:01+00:00,192.8347,14.4,12.97,47.84626,-54.09684
2021-06-27 20:59:01+00:00,197.7248,14.4,12.97,47.84626,-54.09684
2021-06-27 21:09:01+00:00,201.1548,14.4,12.97,47.84626,-54.09684
2021-06-27 21:19:01+00:00,202.8914,14.4,12.81,47.84626,-54.09684
2021-06-27 21:29:01+00:00,206.8347,14.4,12.81,47.84626,-54.09684
2021-06-27 21:39:01+00:00,209.5181,14.4,12.81,47.84626,-54.09684
2021-06-27 21:49:01+00:00,211.8997,14.4,12.81,47.84626,-54.09684
2021-06-27 21:59:01+00:00,216.2415,14.4,12.81,47.84626,-54.09684
2021-06-27 22:09:01+00:00,221.4048,14.4,12.81,47.84626,-54.09684
2021-06-27 22:19:01+00:00,226.9448,14.4,12.73,47.84626,-54.09684
2021-06-27 22:29:01+00:00,232.1031,14.4,12.73,47.84626,-54.09684
2021-06-27 22:39:01+00:00,237.6731,14.4,12.73,47.84626,-54.09684
2021-06-27 22:49:01+00:00,244.8031,14.39,12.73,47.84626,-54.09684
2021-06-27 22:59:01+00:00,252.1264,14.39,12.73,47.84626,-54.09684
2021-06-27 23:09:01+00:00,260.7548,14.4,12.73,47.84626,-54.09684
2021-06-27 23:19:01+00:00,269.233,14.4,12.73,47.84626,-54.09684
2021-06-27 23:29:01+00:00,279.8264,14.4,12.73,47.84626,-54.09684
2021-06-27 23:39:01+00:00,292.3814,14.39,12.73,47.84626,-54.09684
2021-06-27 23:49:01+00:00,301.9097,14.39,12.73,47.84626,-54.09684
2021-06-27 23:59:01+00:00,307.488,14.4,12.73,47.84626,-54.09684
